QPF
0.00 0.00 0.00 0.00 0.00 0.00 0.00 0.00 0.00 0.00 0.00 0.00 0.00 0.00 0.00 0.00 0.00 0.00 0.00 0.01 0.02 0.03 0.02 0.02 0.03 0.05 0.07 0.09 0.10 0.11 0.13 0.16 0.16 0.13 0.11 0.11 0.09 0.08
0.00 0.00 0.00 0.00 0.00 0.00 0.00 0.00 0.00 0.00 0.00 0.00 0.00 0.00 0.00 0.00 0.00 0.00 0.00 0.00 0.00 0.00 0.01 0.01 0.01 0.02 0.03 0.05 0.06 0.08 0.09 0.10 0.11 0.11 0.09 0.08 0.07 0.06
0.00 0.00 0.00 0.00 0.00 0.00 0.00 0.00 0.00 0.00 0.00 0.00 0.00 0.00 0.00 0.00 0.00 0.00 0.00 0.00 0.00 0.00 0.00 0.00 0.00 0.00 0.01 0.01 0.03 0.04 0.05 0.07 0.08 0.09 0.08 0.08 0.07 0.05
0.00 0.00 0.00 0.00 0.00 0.00 0.00 0.00 0.00 0.00 0.00 0.00 0.00 0.00 0.00 0.00 0.00 0.00 0.00 0.00 0.00 0.00 0.00 0.00 0.00 0.00 0.00 0.00 0.01 0.02 0.03 0.04 0.06 0.08 0.08 0.07 0.07 0.06
0.00 0.00 0.00 0.00 0.00 0.00 0.00 0.00 0.00 0.00 0.00 0.00 0.00 0.00 0.00 0.00 0.00 0.00 0.00 0.00 0.00 0.00 0.00 0.00 0.00 0.00 0.00 0.00 0.01 0.01 0.01 0.02 0.04 0.05 0.07 0.08 0.07 0.06
0.00 0.00 0.00 0.00 0.00 0.00 0.00 0.00 0.00 0.00 0.00 0.00 0.00 0.00 0.00 0.00 0.00 0.00 0.00 0.00 0.00 0.00 0.00 0.00 0.00 0.00 0.00 0.00 0.00 0.00 0.01 0.01 0.02 0.03 0.04 0.06 0.06 0.06
0.00 0.00 0.00 0.00 0.00 0.00 0.00 0.00 0.00 0.00 0.00 0.00 0.00 0.00 0.00 0.00 0.00 0.00 0.00 0.00 0.00 0.00 0.00 0.00 0.00 0.00 0.00 0.00 0.00 0.00 0.01 0.01 0.01 0.02 0.03 0.04 0.04 0.05
0.00 0.00 0.00 0.00 0.00 0.00 0.00 0.00 0.00 0.00 0.00 0.00 0.00 0.00 0.00 0.00 0.00 0.00 0.00 0.00 0.00 0.00 0.00 0.00 0.00 0.00 0.00 0.00 0.00 0.01 0.01 0.01 0.02 0.02 0.02 0.03 0.04 0.05
0.00 0.00 0.00 0.00 0.00 0.00 0.00 0.00 0.00 0.00 0.00 0.00 0.00 0.00 0.00 0.00 0.00 0.00 0.00 0.00 0.00 0.00 0.00 0.00 0.00 0.00 0.00 0.00 0.00 0.00 0.01 0.01 0.01 0.02 0.02 0.03 0.03 0.05
0.00 0.00 0.00 0.00 0.00 0.00 0.00 0.00 0.00 0.00 0.00 0.00 0.00 0.00 0.00 0.00 0.00 0.00 0.00 0.00 0.00 0.00 0.00 0.00 0.00 0.00 0.00 0.00 0.00 0.00 0.00 0.01 0.01 0.01 0.02 0.02 0.03 0.04
0.00 0.00 0.00 0.00 0.00 0.00 0.00 0.00 0.00 0.00 0.00 0.00 0.00 0.00 0.00 0.00 0.00 0.00 0.00 0.00 0.00 0.00 0.00 0.00 0.00 0.00 0.00 0.00 0.00 0.00 0.00 0.01 0.01 0.01 0.01 0.02 0.03 0.05
0.00 0.00 0.00 0.00 0.00 0.00 0.00 0.00 0.00 0.00 0.00 0.00 0.00 0.00 0.00 0.00 0.00 0.00 0.00 0.00 0.00 0.00 0.00 0.00 0.00 0.00 0.00 0.00 0.00 0.00 0.00 0.01 0.02 0.02 0.02 0.03 0.03 0.04
0.00 0.00 0.00 0.00 0.00 0.00 0.00 0.00 0.00 0.00 0.00 0.00 0.00 0.00 0.00 0.00 0.00 0.00 0.00 0.00 0.00 0.00 0.00 0.00 0.00 0.00 0.00 0.00 0.00 0.00 0.01 0.01 0.02 0.03 0.04 0.05 0.06 0.05
0.00 0.00 0.00 0.00 0.00 0.00 0.00 0.00 0.00 0.00 0.00 0.00 0.00 0.00 0.00 0.00 0.00 0.00 0.00 0.00 0.00 0.00 0.00 0.00 0.00 0.00 0.01 0.01 0.01 0.00 0.00 0.01 0.02 0.03 0.04 0.06 0.08 0.09
0.00 0.00 0.00 0.00 0.00 0.00 0.00 0.00 0.00 0.00 0.00 0.00 0.00 0.00 0.00 0.00 0.00 0.00 0.00 0.00 0.00 0.00 0.00 0.00 0.00 0.00 0.00 0.01 0.01 0.01 0.01 0.01 0.01 0.03 0.04 0.06 0.08 0.10
0.00 0.00 0.00 0.00 0.00 0.00 0.00 0.00 0.00 0.00 0.00 0.00 0.00 0.00 0.00 0.00 0.00 0.00 0.00 0.00 0.00 0.00 0.00 0.00 0.00 0.00 0.00 0.00 0.01 0.01 0.02 0.02 0.02 0.02 0.04 0.06 0.09 0.13
0.02 0.01 0.01 0.00 0.00 0.00 0.00 0.00 0.00 0.00 0.00 0.00 0.00 0.00 0.00 0.00 0.00 0.00 0.00 0.00 0.00 0.00 0.00 0.00 0.00 0.00 0.00 0.00 0.00 0.01 0.01 0.02 0.02 0.02 0.04 0.06 0.08 0.11
0.02 0.02 0.01 0.01 0.01 0.01 0.00 0.00 0.00 0.00 0.00 0.00 0.00 0.00 0.00 0.00 0.00 0.00 0.00 0.00 0.00 0.00 0.00 0.00 0.00 0.00 0.00 0.00 0.00 0.00 0.01 0.02 0.03 0.04 0.04 0.05 0.07 0.10
0.02 0.02 0.02 0.02 0.01 0.01 0.01 0.00 0.00 0.00 0.00 0.00 0.00 0.00 0.00 0.00 0.00 0.00 0.00 0.00 0.00 0.00 0.00 0.01 0.01 0.01 0.01 0.00 0.00 0.00 0.01 0.02 0.05 0.07 0.07 0.06 0.06 0.10
0.03 0.03 0.03 0.02 0.02 0.01 0.01 0.01 0.01 0.00 0.00 0.00 0.00 0.00 0.00 0.00 0.00 0.00 0.00 0.00 0.00 0.00 0.00 0.01 0.01 0.01 0.01 0.01 0.01 0.01 0.01 0.02 0.05 0.07 0.09 0.09 0.08 0.11
0.03 0.03 0.03 0.03 0.03 0.02 0.02 0.01 0.01 0.01 0.01 0.00 0.00 0.00 0.00 0.00 0.00 0.00 0.00 0.00 0.00 0.00 0.00 0.00 0.01 0.02 0.02 0.03 0.03 0.02 0.02 0.03 0.05 0.07 0.10 0.10 0.10 0.11
0.05 0.05 0.06 0.06 0.05 0.04 0.03 0.03 0.02 0.02 0.01 0.01 0.00 0.00 0.01 0.01 0.01 0.01 0.01 0.01 0.01 0.01 0.01 0.01 0.02 0.03 0.03 0.02 0.02 0.03 0.03 0.04 0.05 0.07 0.10 0.11 0.11 0.11
0.08 0.08 0.08 0.07 0.06 0.05 0.04 0.03 0.02 0.01 0.01 0.01 0.01 0.01 0.01 0.01 0.01 0.01 0.01 0.01 0.01 0.01 0.01 0.02 0.03 0.03 0.04 0.04 0.04 0.05 0.05 0.04 0.05 0.06 0.08 0.10 0.12 0.13
MSLP
1019.64 1019.74 1019.86 1019.98 1020.08 1020.14 1020.15 1020.09 1019.98 1019.81 1019.59 1019.33 1019.05 1018.75 1018.44 1018.14 1017.85 1017.58 1017.35 1017.15 1017.01 1016.92 1016.89 1016.90 1016.95 1017.02 1017.11 1017.20 1017.30 1017.40 1017.50 1017.63 1017.77 1017.96 1018.18 1018.45 1018.76 1019.10
1019.23 1019.33 1019.44 1019.55 1019.65 1019.72 1019.74 1019.72 1019.65 1019.53 1019.37 1019.17 1018.94 1018.68 1018.41 1018.12 1017.83 1017.55 1017.29 1017.07 1016.89 1016.77 1016.70 1016.68 1016.70 1016.75 1016.82 1016.89 1016.96 1017.02 1017.08 1017.15 1017.24 1017.35 1017.51 1017.71 1017.96 1018.26
1018.82 1018.89 1018.98 1019.08 1019.17 1019.24 1019.28 1019.29 1019.25 1019.18 1019.07 1018.93 1018.75 1018.54 1018.31 1018.05 1017.77 1017.49 1017.22 1016.97 1016.75 1016.60 1016.49 1016.44 1016.44 1016.47 1016.52 1016.57 1016.61 1016.65 1016.67 1016.69 1016.72 1016.77 1016.86 1017.00 1017.20 1017.44
1018.43 1018.48 1018.55 1018.62 1018.70 1018.76 1018.81 1018.83 1018.82 1018.78 1018.72 1018.62 1018.50 1018.34 1018.14 1017.91 1017.65 1017.38 1017.10 1016.83 1016.59 1016.40 1016.26 1016.17 1016.14 1016.13 1016.16 1016.18 1016.20 1016.21 1016.20 1016.18 1016.17 1016.18 1016.22 1016.31 1016.45 1016.66
1018.09 1018.12 1018.16 1018.21 1018.26 1018.31 1018.35 1018.36 1018.37 1018.35 1018.31 1018.25 1018.16 1018.04 1017.88 1017.69 1017.45 1017.19 1016.91 1016.64 1016.38 1016.16 1015.98 1015.85 1015.77 1015.73 1015.71 1015.71 1015.69 1015.67 1015.63 1015.59 1015.55 1015.52 1015.53 1015.59 1015.70 1015.88
1017.78 1017.79 1017.80 1017.83 1017.85 1017.88 1017.89 1017.89 1017.89 1017.87 1017.84 1017.80 1017.73 1017.64 1017.51 1017.34 1017.14 1016.90 1016.64 1016.37 1016.10 1015.86 1015.65 1015.48 1015.35 1015.26 1015.19 1015.13 1015.08 1015.02 1014.96 1014.89 1014.83 1014.79 1014.79 1014.83 1014.93 1015.10
1017.46 1017.44 1017.44 1017.44 1017.44 1017.44 1017.42 1017.40 1017.37 1017.33 1017.29 1017.24 1017.18 1017.10 1017.00 1016.86 1016.70 1016.49 1016.26 1016.00 1015.74 1015.49 1015.25 1015.05 1014.87 1014.72 1014.60 1014.49 1014.39 1014.29 1014.20 1014.11 1014.04 1014.00 1014.00 1014.05 1014.15 1014.32
1017.06 1017.04 1017.02 1017.00 1016.99 1016.95 1016.91 1016.85 1016.78 1016.71 1016.64 1016.58 1016.51 1016.44 1016.35 1016.25 1016.12 1015.95 1015.76 1015.54 1015.30 1015.06 1014.81 1014.58 1014.36 1014.16 1013.97 1013.81 1013.66 1013.52 1013.40 1013.30 1013.23 1013.19 1013.20 1013.26 1013.38 1013.56
1016.53 1016.51 1016.49 1016.47 1016.44 1016.40 1016.33 1016.24 1016.14 1016.03 1015.93 1015.83 1015.74 1015.67 1015.59 1015.51 1015.42 1015.31 1015.16 1014.99 1014.79 1014.57 1014.33 1014.09 1013.84 1013.60 1013.37 1013.16 1012.96 1012.79 1012.64 1012.52 1012.45 1012.42 1012.44 1012.52 1012.65 1012.84
1015.83 1015.82 1015.82 1015.81 1015.79 1015.75 1015.68 1015.58 1015.45 1015.31 1015.17 1015.04 1014.93 1014.84 1014.76 1014.70 1014.65 1014.58 1014.49 1014.38 1014.23 1014.04 1013.83 1013.59 1013.34 1013.07 1012.81 1012.56 1012.32 1012.11 1011.94 1011.81 1011.73 1011.71 1011.74 1011.83 1011.97 1012.16
1014.97 1014.98 1015.00 1015.03 1015.04 1015.03 1014.97 1014.87 1014.74 1014.58 1014.41 1014.25 1014.11 1014.00 1013.92 1013.87 1013.84 1013.81 1013.77 1013.71 1013.62 1013.48 1013.30 1013.09 1012.84 1012.57 1012.29 1012.02 1011.76 1011.53 1011.34 1011.19 1011.11 1011.08 1011.12 1011.21 1011.35 1011.53
1013.98 1014.02 1014.08 1014.15 1014.21 1014.24 1014.21 1014.14 1014.02 1013.85 1013.67 1013.49 1013.33 1013.20 1013.11 1013.06 1013.04 1013.03 1013.03 1013.01 1012.96 1012.87 1012.74 1012.56 1012.33 1012.07 1011.79 1011.51 1011.24 1011.00 1010.80 1010.65 1010.55 1010.52 1010.55 1010.63 1010.76 1010.93
1012.93 1012.98 1013.09 1013.21 1013.32 1013.40 1013.43 1013.39 1013.30 1013.15 1012.97 1012.78 1012.60 1012.45 1012.34 1012.28 1012.25 1012.25 1012.27 1012.28 1012.27 1012.21 1012.11 1011.96 1011.77 1011.53 1011.27 1010.99 1010.73 1010.48 1010.27 1010.12 1010.01 1009.97 1009.99 1010.05 1010.16 1010.30
1011.86 1011.94 1012.07 1012.23 1012.40 1012.53 1012.61 1012.62 1012.56 1012.44 1012.27 1012.09 1011.90 1011.74 1011.61 1011.53 1011.48 1011.48 1011.49 1011.51 1011.51 1011.48 1011.40 1011.28 1011.11 1010.90 1010.66 1010.41 1010.15 1009.92 1009.71 1009.55 1009.45 1009.39 1009.39 1009.44 1009.52 1009.62
1010.85 1010.92 1011.07 1011.25 1011.45 1011.62 1011.74 1011.79 1011.77 1011.69 1011.55 1011.37 1011.19 1011.02 1010.88 1010.77 1010.71 1010.68 1010.68 1010.68 1010.68 1010.66 1010.59 1010.49 1010.35 1010.16 1009.95 1009.71 1009.48 1009.26 1009.07 1008.91 1008.80 1008.74 1008.72 1008.74 1008.79 1008.86
1009.92 1009.97 1010.10 1010.28 1010.47 1010.66 1010.80 1010.88 1010.90 1010.85 1010.74 1010.59 1010.43 1010.26 1010.11 1009.99 1009.91 1009.85 1009.82 1009.80 1009.78 1009.75 1009.69 1009.59 1009.46 1009.30 1009.11 1008.90 1008.69 1008.49 1008.32 1008.17 1008.07 1007.99 1007.96 1007.95 1007.97 1008.00
1009.06 1009.06 1009.15 1009.29 1009.47 1009.64 1009.78 1009.88 1009.92 1009.90 1009.83 1009.71 1009.57 1009.42 1009.28 1009.16 1009.06 1008.98 1008.92 1008.87 1008.83 1008.78 1008.70 1008.61 1008.49 1008.34 1008.17 1007.99 1007.81 1007.64 1007.48 1007.35 1007.25 1007.18 1007.13 1007.10 1007.09 1007.08
1008.25 1008.19 1008.21 1008.30 1008.42 1008.55 1008.68 1008.77 1008.83 1008.84 1008.81 1008.73 1008.63 1008.51 1008.39 1008.27 1008.16 1008.07 1007.99 1007.91 1007.84 1007.77 1007.68 1007.58 1007.46 1007.32 1007.18 1007.02 1006.87 1006.73 1006.60 1006.49 1006.40 1006.32 1006.27 1006.23 1006.18 1006.14
1007.45 1007.32 1007.27 1007.28 1007.34 1007.43 1007.52 1007.61 1007.68 1007.72 1007.72 1007.69 1007.63 1007.55 1007.46 1007.36 1007.25 1007.15 1007.05 1006.95 1006.86 1006.76 1006.66 1006.55 1006.43 1006.31 1006.18 1006.05 1005.93 1005.81 1005.71 1005.62 1005.55 1005.49 1005.43 1005.38 1005.32 1005.25
1006.61 1006.42 1006.30 1006.24 1006.25 1006.29 1006.36 1006.45 1006.53 1006.59 1006.63 1006.65 1006.64 1006.60 1006.53 1006.45 1006.35 1006.24 1006.13 1006.01 1005.90 1005.78 1005.66 1005.55 1005.43 1005.32 1005.21 1005.11 1005.02 1004.94 1004.86 1004.80 1004.75 1004.71 1004.66 1004.61 1004.54 1004.45
1005.69 1005.46 1005.29 1005.20 1005.17 1005.19 1005.25 1005.34 1005.44 1005.54 1005.63 1005.69 1005.71 1005.71 1005.67 1005.60 1005.50 1005.38 1005.25 1005.12 1004.98 1004.85 1004.72 1004.60 1004.49 1004.39 1004.30 1004.23 1004.16 1004.11 1004.07 1004.04 1004.02 1004.00 1003.97 1003.93 1003.86 1003.78
1004.70 1004.45 1004.27 1004.17 1004.14 1004.17 1004.25 1004.37 1004.50 1004.64 1004.76 1004.86 1004.92 1004.93 1004.90 1004.83 1004.72 1004.59 1004.44 1004.28 1004.12 1003.96 1003.82 1003.70 1003.59 1003.51 1003.44 1003.39 1003.36 1003.34 1003.34 1003.34 1003.35 1003.36 1003.36 1003.34 1003.30 1003.24
1003.64 1003.41 1003.26 1003.19 1003.20 1003.27 1003.40 1003.57 1003.75 1003.93 1004.09 1004.21 1004.28 1004.30 1004.26 1004.17 1004.04 1003.88 1003.69 1003.50 1003.31 1003.13 1002.98 1002.85 1002.75 1002.68 1002.63 1002.60 1002.60 1002.61 1002.64 1002.68 1002.73 1002.77 1002.81 1002.83 1002.83 1002.81
Thickness
5658 5655 5652 5650 5647 5644 5642 5640 5637 5635 5636 5638 5640 5644 5645 5647 5650 5652 5655 5658 5661 5664 5667 5669 5672 5675 5678 5681 5684 5686 5689 5692 5695 5697 5699 5700 5701 5702
5654 5651 5648 5646 5643 5640 5637 5635 5632 5630 5628 5630 5631 5633 5635 5637 5640 5642 5645 5649 5652 5655 5658 5661 5664 5667 5670 5673 5677 5680 5683 5686 5689 5693 5695 5697 5699 5700
5652 5648 5645 5642 5639 5636 5633 5630 5627 5624 5623 5624 5623 5624 5625 5628 5630 5633 5635 5638 5642 5645 5648 5652 5656 5659 5663 5667 5670 5673 5677 5680 5684 5687 5691 5693 5696 5698
5649 5645 5642 5639 5635 5631 5628 5625 5622 5620 5617 5617 5617 5616 5617 5618 5620 5622 5625 5628 5631 5635 5638 5642 5647 5651 5655 5659 5662 5666 5671 5674 5678 5682 5685 5689 5692 5695
5645 5642 5638 5634 5630 5627 5623 5620 5617 5615 5612 5610 5610 5609 5609 5609 5610 5612 5615 5617 5621 5625 5628 5632 5637 5641 5646 5650 5655 5659 5664 5668 5672 5676 5680 5683 5687 5691
5642 5638 5635 5631 5627 5623 5619 5616 5612 5609 5606 5603 5603 5602 5601 5600 5600 5602 5605 5607 5610 5614 5618 5622 5626 5630 5636 5641 5647 5652 5656 5661 5665 5670 5674 5678 5683 5687
5638 5635 5631 5628 5624 5620 5616 5612 5607 5603 5600 5598 5597 5595 5594 5593 5593 5594 5596 5598 5601 5604 5608 5612 5616 5620 5624 5630 5636 5642 5648 5653 5659 5664 5669 5673 5678 5682
5634 5631 5627 5624 5621 5617 5613 5609 5604 5599 5596 5593 5592 5590 5589 5587 5586 5586 5587 5588 5592 5595 5597 5601 5604 5609 5615 5620 5627 5633 5639 5645 5651 5657 5662 5667 5672 5676
5631 5627 5623 5621 5617 5612 5608 5604 5601 5597 5593 5590 5588 5586 5584 5583 5581 5580 5579 5581 5584 5586 5586 5593 5596 5601 5606 5612 5618 5625 5631 5637 5643 5649 5655 5661 5666 5671
5627 5623 5619 5616 5612 5607 5603 5599 5596 5592 5589 5586 5585 5583 5580 5578 5575 5575 5574 5574 5576 5577 5577 5583 5589 5593 5600 5605 5611 5617 5623 5629 5636 5642 5648 5654 5660 5664
5624 5620 5615 5612 5609 5603 5597 5594 5591 5588 5585 5582 5580 5578 5575 5572 5569 5567 5567 5566 5571 5573 5572 5574 5582 5586 5592 5599 5605 5610 5616 5621 5627 5634 5640 5646 5652 5657
5620 5616 5612 5608 5605 5598 5593 5589 5586 5584 5581 5578 5574 5572 5569 5567 5564 5563 5563 5563 5565 5568 5568 5568 5574 5577 5585 5592 5597 5601 5606 5612 5618 5625 5631 5638 5643 5648
5616 5613 5610 5605 5600 5594 5588 5585 5583 5580 5575 5571 5568 5566 5564 5562 5561 5559 5559 5559 5560 5563 5563 5561 5566 5569 5573 5581 5586 5591 5596 5602 5609 5616 5622 5629 5635 5640
5613 5611 5607 5601 5595 5590 5585 5581 5577 5571 5568 5565 5563 5561 5560 5559 5558 5557 5555 5554 5555 5557 5558 5556 5558 5561 5565 5571 5577 5582 5587 5592 5599 5606 5613 5620 5627 5633
5608 5606 5601 5595 5589 5584 5580 5576 5570 5566 5563 5560 5560 5559 5558 5556 5553 5551 5550 5549 5549 5551 5551 5551 5552 5555 5557 5562 5569 5574 5578 5584 5590 5597 5604 5611 5618 5625
5598 5596 5592 5586 5581 5578 5574 5570 5566 5563 5560 5558 5558 5556 5552 5549 5547 5546 5545 5545 5544 5548 5548 5548 5548 5549 5552 5556 5561 5567 5570 5576 5583 5588 5594 5602 5610 5618
5589 5585 5581 5578 5575 5571 5568 5564 5561 5557 5554 5553 5551 5549 5547 5545 5544 5542 5540 5539 5539 5543 5546 5545 5544 5545 5547 5550 5555 5560 5564 5569 5574 5579 5585 5594 5603 5611
5573 5575 5575 5573 5571 5568 5564 5560 5556 5552 5551 5548 5546 5544 5542 5541 5540 5538 5535 5535 5536 5538 5539 5540 5538 5538 5541 5546 5548 5553 5558 5563 5568 5572 5578 5586 5597 5605
5562 5566 5566 5565 5563 5560 5557 5554 5552 5549 5546 5544 5542 5540 5538 5536 5535 5534 5533 5532 5532 5534 5535 5534 5533 5534 5537 5544 5550 5548 5552 5558 5562 5568 5574 5581 5590 5599
5552 5554 5556 5555 5553 5551 5549 5547 5545 5543 5540 5539 5537 5536 5534 5532 5531 5531 5530 5530 5530 5530 5530 5530 5529 5530 5533 5539 5543 5546 5547 5552 5557 5563 5569 5575 5583 5590
5539 5540 5541 5542 5542 5541 5540 5539 5538 5537 5536 5534 5533 5531 5530 5528 5528 5528 5528 5526 5524 5525 5526 5528 5529 5527 5528 5529 5534 5541 5544 5546 5551 5556 5563 5568 5576 5584
5525 5526 5528 5528 5529 5530 5530 5530 5531 5531 5530 5529 5528 5527 5526 5525 5525 5525 5524 5523 5523 5523 5524 5525 5524 5521 5521 5525 5531 5536 5539 5542 5544 5548 5553 5561 5570 5579
5512 5513 5516 5518 5520 5521 5522 5523 5524 5524 5524 5524 5523 5523 5522 5521 5521 5520 5520 5519 5519 5519 5519 5519 5519 5518 5520 5522 5526 5530 5534 5537 5539 5543 5547 5553 5560 5568